Wise, VA

3:42 PM EST on November 19, 2017 (GMT -0500)
Lonesome Pine

Weather History for KLNP - March, 2011

Change the Weather History Date:

Monday, March 21, 2011

  Actual Average Record
Temperature  
Mean Temperature 61 °F -  
Max Temperature 69 °F 52 °F 77 °F (2012)
Min Temperature 53 °F 33 °F 17 °F (2013)
Degree Days  
Heating Degree Days 4    
Growing Degree Days 11 (Base 50)    
Moisture  
Dew Point 51 °F    
Average Humidity 70    
Maximum Humidity 88    
Minimum Humidity 52    
Precipitation  
Precipitation 0.00 in - - ()
Sea Level Pressure  
Sea Level Pressure 30.24 in    
Wind  
Wind Speed 15 mph (SW)    
Max Wind Speed 25 mph    
Max Gust Speed 34 mph    
Visibility 10 miles    
Events      
Averages and records for this station are not official NWS values.
T = Trace of Precipitation, MM = Missing Value Source: NWS Daily Summary

Daily Weather History Graph

Daily Weather History Graph

Search for Another Location

Airport or City:

Trip Planner

Search our weather history database for the weather conditions in past years. The results will help you decide how hot, cold, wet, or windy it might be!

Date:

Astronomy

Mar. 21, 2011 Rise Set
Actual Time 7:32 AM EDT 7:42 PM EDT
Civil Twilight 7:06 AM EDT 8:08 PM EDT
Nautical Twilight 6:36 AM EDT 8:38 PM EDT
Astronomical Twilight 6:05 AM EDT 9:09 PM EDT
Moon 10:29 PM EDT (3/21) 8:19 AM EDT (3/21)
Length of Visible Light 13h 01m
Length of Day
12h 10m
Waning Gibbous, 95% of the Moon is Illuminated
Mar 21
Waning Gibbous
Mar 26
Last Quarter
Apr 3
New
Apr 11
First Quarter
Apr 17
Full

Hourly Weather History & Observations

Time (EDT) Temp. Dew Point Humidity Pressure Visibility Wind Dir Wind Speed Gust Speed Precip Events Conditions
12:17 AM 55.4 °F 44.6 °F 67% 30.28 in 10.0 mi South 19.6 mph 24.2 mph N/A   Clear
12:37 AM 55.4 °F 44.6 °F 67% 30.27 in 10.0 mi South 15.0 mph 21.9 mph N/A   Clear
12:57 AM 53.6 °F 44.6 °F 72% 30.27 in 10.0 mi South 17.3 mph 21.9 mph N/A   Clear
1:17 AM 55.4 °F 44.6 °F 67% 30.29 in 10.0 mi South 11.5 mph 20.7 mph N/A   Mostly Cloudy
1:37 AM 55.4 °F 46.4 °F 72% 30.28 in 10.0 mi South 8.1 mph - N/A   Mostly Cloudy
1:57 AM 55.4 °F 44.6 °F 67% 30.28 in 10.0 mi SSE 9.2 mph - N/A   Scattered Clouds
2:17 AM 55.4 °F 46.4 °F 72% 30.27 in 10.0 mi South 10.4 mph - N/A   Mostly Cloudy
2:37 AM 53.6 °F 46.4 °F 77% 30.27 in 10.0 mi South 5.8 mph - N/A   Scattered Clouds
2:57 AM 53.6 °F 46.4 °F 77% 30.26 in 10.0 mi South 9.2 mph - N/A   Scattered Clouds
3:17 AM 55.4 °F 46.4 °F 72% 30.26 in 10.0 mi South 8.1 mph - N/A   Scattered Clouds
3:37 AM 55.4 °F 46.4 °F 72% 30.26 in 10.0 mi SSW 10.4 mph - N/A   Mostly Cloudy
3:57 AM 55.4 °F 48.2 °F 77% 30.26 in 10.0 mi SSW 6.9 mph - N/A   Overcast
4:17 AM 55.4 °F 48.2 °F 77% 30.26 in 10.0 mi SSW 8.1 mph - N/A   Overcast
4:57 AM 55.4 °F 48.2 °F 77% 30.26 in 10.0 mi SW 9.2 mph - N/A   Overcast
5:17 AM 55.4 °F 48.2 °F 77% 30.26 in 10.0 mi SW 18.4 mph 21.9 mph N/A   Overcast
5:37 AM 55.4 °F 48.2 °F 77% 30.26 in 10.0 mi SW 15.0 mph 24.2 mph N/A   Overcast
5:57 AM 55.4 °F 48.2 °F 77% 30.27 in 10.0 mi SW 16.1 mph 26.5 mph N/A   Overcast
6:17 AM 55.4 °F 50.0 °F 82% 30.27 in 10.0 mi SW 20.7 mph 31.1 mph N/A   Overcast
6:37 AM 55.4 °F 50.0 °F 82% 30.28 in 10.0 mi SW 25.3 mph - N/A   Scattered Clouds
6:57 AM 55.4 °F 51.8 °F 88% 30.28 in 10.0 mi SW 24.2 mph 31.1 mph N/A   Scattered Clouds
7:17 AM 55.4 °F 51.8 °F 88% 30.28 in 10.0 mi SW 20.7 mph 29.9 mph N/A   Scattered Clouds
7:37 AM 57.2 °F 51.8 °F 82% 30.28 in 10.0 mi SW 25.3 mph 34.5 mph N/A   Scattered Clouds
7:57 AM 55.4 °F 51.8 °F 88% 30.28 in 10.0 mi SW 20.7 mph 29.9 mph N/A   Scattered Clouds
8:17 AM 55.4 °F 51.8 °F 88% 30.29 in 10.0 mi SW 19.6 mph 28.8 mph N/A   Scattered Clouds
8:37 AM 57.2 °F 51.8 °F 82% 30.30 in 10.0 mi SW 18.4 mph 32.2 mph N/A   Scattered Clouds
8:57 AM 57.2 °F 51.8 °F 82% 30.29 in 10.0 mi SW 21.9 mph 29.9 mph N/A   Mostly Cloudy
9:17 AM 57.2 °F 53.6 °F 88% 30.29 in 10.0 mi SW 20.7 mph 26.5 mph N/A   Scattered Clouds
9:37 AM 59.0 °F 53.6 °F 82% 30.28 in 10.0 mi SW 19.6 mph 25.3 mph N/A   Scattered Clouds
9:57 AM 59.0 °F 53.6 °F 82% 30.28 in 10.0 mi SW 19.6 mph 25.3 mph N/A   Mostly Cloudy
10:17 AM 59.0 °F 53.6 °F 82% 30.28 in 10.0 mi SW 19.6 mph 26.5 mph N/A   Scattered Clouds
10:37 AM 60.8 °F 53.6 °F 77% 30.28 in 10.0 mi SW 18.4 mph 23.0 mph N/A   Clear
10:57 AM 60.8 °F 53.6 °F 77% 30.28 in 10.0 mi SW 16.1 mph - N/A   Scattered Clouds
11:17 AM 60.8 °F 53.6 °F 77% 30.27 in 10.0 mi SW 16.1 mph 19.6 mph N/A   Scattered Clouds
11:37 AM 62.6 °F 53.6 °F 72% 30.27 in 10.0 mi SW 12.7 mph 19.6 mph N/A   Scattered Clouds
11:57 AM 62.6 °F 53.6 °F 72% 30.27 in 10.0 mi SW 11.5 mph 18.4 mph N/A   Clear
12:17 PM 64.4 °F 53.6 °F 68% 30.26 in 10.0 mi SW 12.7 mph 18.4 mph N/A   Clear
12:37 PM 64.4 °F 53.6 °F 68% 30.25 in 10.0 mi SW 13.8 mph 18.4 mph N/A   Clear
12:57 PM 64.4 °F 53.6 °F 68% 30.25 in 10.0 mi SW 11.5 mph - N/A   Clear
1:17 PM 66.2 °F 53.6 °F 64% 30.24 in 10.0 mi SW 13.8 mph 19.6 mph N/A   Scattered Clouds
1:37 PM 66.2 °F 53.6 °F 64% 30.23 in 10.0 mi WSW 12.7 mph 19.6 mph N/A   Scattered Clouds
1:57 PM 66.2 °F 53.6 °F 64% 30.22 in 10.0 mi SSW 16.1 mph 19.6 mph N/A   Scattered Clouds
2:17 PM 68.0 °F 53.6 °F 60% 30.21 in 10.0 mi SW 12.7 mph - N/A   Scattered Clouds
2:37 PM 68.0 °F 53.6 °F 60% 30.20 in 10.0 mi SSW 15.0 mph 20.7 mph N/A   Scattered Clouds
2:57 PM 68.0 °F 51.8 °F 56% 30.18 in 10.0 mi SW 16.1 mph 19.6 mph N/A   Scattered Clouds
3:17 PM 68.0 °F 51.8 °F 56% 30.17 in 10.0 mi SW 16.1 mph 20.7 mph N/A   Scattered Clouds
3:37 PM 68.0 °F 51.8 °F 56% 30.18 in 10.0 mi SW 16.1 mph 20.7 mph N/A   Scattered Clouds
3:57 PM 68.0 °F 51.8 °F 56% 30.16 in 10.0 mi SW 15.0 mph 21.9 mph N/A   Unknown
4:17 PM 68.0 °F 51.8 °F 56% 30.16 in 10.0 mi SW 17.3 mph 20.7 mph N/A   Clear
4:37 PM 69.8 °F 51.8 °F 53% 30.15 in 10.0 mi SW 17.3 mph 21.9 mph N/A   Clear
4:57 PM 69.8 °F 51.8 °F 53% 30.15 in 10.0 mi SW 13.8 mph 20.7 mph N/A   Clear
5:17 PM 68.0 °F 51.8 °F 56% 30.15 in 10.0 mi SSW 16.1 mph - N/A   Scattered Clouds
5:37 PM 69.8 °F 51.8 °F 53% 30.14 in 10.0 mi SW 13.8 mph 19.6 mph N/A   Clear
5:57 PM 69.8 °F 51.8 °F 53% 30.13 in 10.0 mi SSW 15.0 mph 19.6 mph N/A   Clear
6:17 PM 68.0 °F 50.0 °F 52% 30.13 in 10.0 mi SSW 13.8 mph - N/A   Clear
6:37 PM 68.0 °F 50.0 °F 52% 30.13 in 10.0 mi SSW 15.0 mph - N/A   Clear
6:57 PM 66.2 °F 50.0 °F 56% 30.12 in 10.0 mi SW 13.8 mph - N/A   Clear
7:17 PM 64.4 °F 50.0 °F 59% 30.13 in 10.0 mi SW 15.0 mph 18.4 mph N/A   Clear
7:37 PM 64.4 °F 50.0 °F 59% 30.13 in 10.0 mi SW 10.4 mph - N/A   Scattered Clouds
7:57 PM 64.4 °F 51.8 °F 64% 30.13 in 10.0 mi SW 12.7 mph 17.3 mph N/A   Clear
8:17 PM 62.6 °F 51.8 °F 68% 30.14 in 10.0 mi SW 11.5 mph - N/A   Clear
8:37 PM 62.6 °F 51.8 °F 68% 30.14 in 10.0 mi SW 8.1 mph - N/A   Clear
8:57 PM 62.6 °F 51.8 °F 68% 30.14 in 10.0 mi SW 8.1 mph - N/A   Clear
9:17 PM 60.8 °F 51.8 °F 72% 30.15 in 10.0 mi WSW 8.1 mph - N/A   Clear
9:37 PM 60.8 °F 51.8 °F 72% 30.16 in 10.0 mi SW 9.2 mph - N/A   Scattered Clouds
9:57 PM 60.8 °F 51.8 °F 72% 30.15 in 10.0 mi SW 8.1 mph - N/A   Mostly Cloudy
10:17 PM 60.8 °F 51.8 °F 72% 30.16 in 10.0 mi WSW 5.8 mph - N/A   Mostly Cloudy
10:37 PM 60.8 °F 51.8 °F 72% 30.15 in 10.0 mi WSW 5.8 mph - N/A   Scattered Clouds
10:57 PM 59.0 °F 51.8 °F 77% 30.14 in 10.0 mi WSW 6.9 mph - N/A   Clear
11:17 PM 59.0 °F 51.8 °F 77% 30.14 in 10.0 mi WSW 6.9 mph - N/A   Clear
11:37 PM 59.0 °F 51.8 °F 77% 30.14 in 10.0 mi WSW 9.2 mph - N/A   Clear